(277910) = 2006 KS74

Discovered at Kitt Peak on 2006-05-23 by Spacewatch.

Orbit

Orbit type: Main Belt

Note: WebGL enabled browser required.

epoch2024-03-31.0
epoch JD2460400.5
perihelion date2021-03-09.82126
perihelion JD2459283.32126
argument of perihelion (°)318.77845
ascending node (°)185.07179
inclination (°)9.42196
eccentricity0.0544753
perihelion distance (AU)2.9079802
Tisserand w.r.t. Jupiter3.2
ΔV w.r.t. Earth (km/sec)11.0
semimajor axis (AU)3.0755202
mean anomaly (°)204.14965
mean daily motion (°/day)0.18273680
aphelion distance (AU)3.243
period (years)5.39
P-vector [x]-0.80669198
P-vector [y]0.57600713
P-vector [z]0.13215079
Q-vector [x]-0.59079490
Q-vector [y]-0.78055256
Q-vector [z]-0.20420356
absolute magnitude16.28
phase slope0.15
uncertainty0
referenceMPEC 2024-E02
observations used255
oppositions14
arc length (days)7236
first opposition used2003
last opposition used2023
residual rms (arc-secs)0.75
perturbers coarse indicatorM-v
perturbers precise indicator003Ek
first observation date used2003-11-23.0
last observation date used2023-09-15.0
computer nameMPCLINUX
JD of orbit computation2456612.629771
perihelion JD uncertainty (days)8.6435E-04
argument of perihelion uncertainty (°)1.6721E-04
ascending node uncertainty (°)6.8770E-05
inclination uncertainty (°)1.2034E-05
eccentricity uncertainty 6.4603E-08
perihelion distance uncertainty (AU)2.1449E-07
Minimum Orbit Intersection Distances (in AU)
for orbit epoch: 2460400.5, reference: E2024-E02
Mercury2.54392
Venus2.20098
Earth1.92644
Mars1.26763
Jupiter1.75624
Saturn6.07435
Uranus15.5229
Neptune26.6661

Observations

259 total observations over interval: 2003 11 23.30720 – 2023 09 15.292186
These data are available for download (format description).

Date (UT) J2000 RA J2000 Dec Magn Location Ref
2003 11 23.30720 04 30 58.41 +09 43 14.6 22.0 V 691 – Steward Observatory, Kitt Peak-Spacewatch MPS 311840
2003 11 23.35318 04 30 56.18 +09 43 04.5 21.5 V 691 – Steward Observatory, Kitt Peak-Spacewatch MPS 311840
2003 11 23.39076 04 30 54.34 +09 42 55.3 21.3 V 691 – Steward Observatory, Kitt Peak-Spacewatch MPS 311840
2006 05 23.36148 16 16 00.62 -09 13 38.8 20.9 V 691 – Steward Observatory, Kitt Peak-Spacewatch MPS 172971
2006 05 23.37876 16 15 59.78 -09 13 34.9 20.7 V 691 – Steward Observatory, Kitt Peak-Spacewatch MPS 172971
2006 05 23.39608 16 15 58.95 -09 13 31.0 20.8 V 691 – Steward Observatory, Kitt Peak-Spacewatch MPS 172971
2006 05 27.26839 16 12 58.71 -09 00 01.9 20.5 V 691 – Steward Observatory, Kitt Peak-Spacewatch MPS 172971
2006 05 27.28571 16 12 57.91 -08 59 58.4 20.6 V 691 – Steward Observatory, Kitt Peak-Spacewatch MPS 172971
2006 05 27.30305 16 12 57.05 -08 59 54.8 20.8 V 691 – Steward Observatory, Kitt Peak-Spacewatch MPS 172971
2006 05 31.31960 16 09 51.24 -08 47 27.4 20.5 V 691 – Steward Observatory, Kitt Peak-Spacewatch MPS 172971
2006 05 31.33694 16 09 50.41 -08 47 24.8 20.6 V 691 – Steward Observatory, Kitt Peak-Spacewatch MPS 172971
2006 05 31.35427 16 09 49.60 -08 47 21.3 20.6 V 691 – Steward Observatory, Kitt Peak-Spacewatch MPS 172971
2006 06 20.17569 15 56 31.09 -08 12 26.8 21.1 V 691 – Steward Observatory, Kitt Peak-Spacewatch MPS 173998
2006 06 20.19599 15 56 30.38 -08 12 25.6 21.4 V 691 – Steward Observatory, Kitt Peak-Spacewatch MPS 173998
2006 06 20.21336 15 56 29.81 -08 12 25.5 21.1 V 691 – Steward Observatory, Kitt Peak-Spacewatch MPS 173998
2008 09 23.46070 02 34 58.98 +09 54 06.7 20.4 V 691 – Steward Observatory, Kitt Peak-Spacewatch MPS 311195
2008 09 23.47833 02 34 58.71 +09 54 00.7 21.0 V 691 – Steward Observatory, Kitt Peak-Spacewatch MPS 311195
2008 09 23.49598 02 34 58.32 +09 53 55.6 21.1 V 691 – Steward Observatory, Kitt Peak-Spacewatch MPS 311195
2008 10 02.36271 02 31 17.21 +09 05 41.2 20.9 V 691 – Steward Observatory, Kitt Peak-Spacewatch MPS 311195
2008 10 02.38328 02 31 16.56 +09 05 34.4 20.7 V 691 – Steward Observatory, Kitt Peak-Spacewatch MPS 311195
2008 10 02.40435 02 31 15.91 +09 05 26.8 20.9 V 691 – Steward Observatory, Kitt Peak-Spacewatch MPS 311195
2008 10 22.37242 02 18 36.54 +07 01 02.8 20.0 V G96 – Mt. Lemmon Survey MPS 311195
2008 10 22.37811 02 18 36.28 +07 01 00.8 20.4 V G96 – Mt. Lemmon Survey MPS 311195
2008 10 22.38381 02 18 36.00 +07 00 58.0 20.1 V G96 – Mt. Lemmon Survey MPS 311195
2008 10 22.38951 02 18 35.74 +07 00 56.1 19.7 V G96 – Mt. Lemmon Survey MPS 311195
2010 01 13.26524 07 58 37.84 +07 23 19.3 20.2 V G96 – Mt. Lemmon Survey MPS 311840
2010 01 13.27229 07 58 37.48 +07 23 20.6 20.5 V G96 – Mt. Lemmon Survey MPS 311840
2010 01 13.29229 07 58 36.48 +07 23 23.8 20.4 V G96 – Mt. Lemmon Survey MPS 311840
2010 01 13.29949 07 58 36.15 +07 23 25.1 20.4 V G96 – Mt. Lemmon Survey MPS 311840
2011 03 25.37153 14 15 02.87 -08 42 51.7 20.8 V 691 – Steward Observatory, Kitt Peak-Spacewatch MPS 375565
2011 03 25.38931 14 15 02.42 -08 42 45.1 20.9 V 691 – Steward Observatory, Kitt Peak-Spacewatch MPS 375565
2011 03 25.40705 14 15 01.91 -08 42 38.7 20.9 V 691 – Steward Observatory, Kitt Peak-Spacewatch MPS 375565
2011 05 03.22901 13 49 57.46 -04 28 17.9 20.2 V G96 – Mt. Lemmon Survey MPS 381207
2011 05 03.23649 13 49 57.18 -04 28 15.4 20.3 V G96 – Mt. Lemmon Survey MPS 381207
2011 05 03.24398 13 49 56.85 -04 28 13.0 20.2 V G96 – Mt. Lemmon Survey MPS 381207
2011 05 03.25145 13 49 56.56 -04 28 10.3 20.5 V G96 – Mt. Lemmon Survey MPS 381207
2013 09 03.44622 00 27 35.75 +04 19 55.1 21.9 V G96 – Mt. Lemmon Survey MPS 476032
2013 09 03.45404 00 27 35.48 +04 19 52.6 20.8 V G96 – Mt. Lemmon Survey MPS 476032
2013 09 03.46185 00 27 35.26 +04 19 49.9 20.9 V G96 – Mt. Lemmon Survey MPS 476032
2013 09 03.46969 00 27 34.98 +04 19 46.9 21.1 V G96 – Mt. Lemmon Survey MPS 476032
2013 09 24.37611 00 14 36.20 +02 04 26.9 20.0 V G96 – Mt. Lemmon Survey MPS 478624
2013 09 24.38142 00 14 35.97 +02 04 24.7 20.0 V G96 – Mt. Lemmon Survey MPS 478624
2013 09 24.38673 00 14 35.75 +02 04 22.3 19.9 V G96 – Mt. Lemmon Survey MPS 478624
2013 09 24.39201 00 14 35.50 +02 04 20.3 20.3 V G96 – Mt. Lemmon Survey MPS 478624
2013 09 30.71383 00 10 14.65 +01 19 37.8 21.9 R D29 – Purple Mountain Observatory, XuYi Station MPS 486993
2013 09 30.72974 00 10 13.83 +01 19 31.0 22.2 R D29 – Purple Mountain Observatory, XuYi Station MPS 486993
2013 10 28.26920 23 54 50.21 -01 28 49.4 21.1 V G96 – Mt. Lemmon Survey MPS 485073
2013 10 28.28066 23 54 49.93 -01 28 52.4 20.8 V G96 – Mt. Lemmon Survey MPS 485073
2013 10 28.29149 23 54 49.68 -01 28 56.1 21.7 V G96 – Mt. Lemmon Survey MPS 485073
2013 10 28.29928 23 54 49.49 -01 28 58.1 20.9 V G96 – Mt. Lemmon Survey MPS 485073
2014 12 29.23649 05 19 53.04 +09 31 24.8 20.6 r G45 – Space Surveillance Telescope, Atom Site MPS 570860
2014 12 29.23953 05 19 52.95 +09 31 24.1 20.6 r G45 – Space Surveillance Telescope, Atom Site MPS 570860
2014 12 29.24257 05 19 52.78 +09 31 24.0 20.5 r G45 – Space Surveillance Telescope, Atom Site MPS 570860
2014 12 29.24607 05 19 52.65 +09 31 24.1 20.7 r G45 – Space Surveillance Telescope, Atom Site MPS 570860
2014 12 29.25366 05 19 52.26 +09 31 25.1 20.6 r G45 – Space Surveillance Telescope, Atom Site MPS 570860
2014 12 29.25671 05 19 52.12 +09 31 24.7 20.3 r G45 – Space Surveillance Telescope, Atom Site MPS 570860
2014 12 29.25977 05 19 51.99 +09 31 25.3 20.7 r G45 – Space Surveillance Telescope, Atom Site MPS 570860
2015 01 19.37234 05 07 31.148 +10 02 24.10 20.8 w F51 – Pan-STARRS 1, Haleakala MPS 566860
2015 01 19.38539 05 07 30.835 +10 02 26.11 21.0 w F51 – Pan-STARRS 1, Haleakala MPS 566860
2015 01 19.39847 05 07 30.526 +10 02 27.94 20.8 w F51 – Pan-STARRS 1, Haleakala MPS 566860
2016 02 10.48478 11 54 25.668 -03 41 29.50 21.1 w F51 – Pan-STARRS 1, Haleakala MPS 681917
2016 02 10.49587 11 54 25.432 -03 41 27.05 21.2 w F51 – Pan-STARRS 1, Haleakala MPS 681917
2016 02 10.50697 11 54 25.210 -03 41 24.43 21.1 w F51 – Pan-STARRS 1, Haleakala MPS 681917
2016 02 10.51805 11 54 24.996 -03 41 21.88 21.1 w F51 – Pan-STARRS 1, Haleakala MPS 681917
2016 02 10.52008 11 54 24.954 -03 41 21.41 21.1 w F51 – Pan-STARRS 1, Haleakala MPS 681917
2016 02 10.53303 11 54 24.694 -03 41 18.61 21.1 w F51 – Pan-STARRS 1, Haleakala MPS 681917
2016 02 10.54600 11 54 24.430 -03 41 15.62 21.0 w F51 – Pan-STARRS 1, Haleakala MPS 681917
2016 02 10.55899 11 54 24.172 -03 41 12.53 20.9 w F51 – Pan-STARRS 1, Haleakala MPS 681917
2016 02 29.42340 11 45 21.874 -02 00 27.19 20.7 r F51 – Pan-STARRS 1, Haleakala MPS 689578
2016 02 29.43515 11 45 21.421 -02 00 22.71 20.7 r F51 – Pan-STARRS 1, Haleakala MPS 689578
2016 02 29.44690 11 45 20.962 -02 00 18.07 20.6 r F51 – Pan-STARRS 1, Haleakala MPS 689578
2016 03 11.33038 11 38 05.63 -00 41 56.5 20.2 V G96 – Mt. Lemmon Survey MPS 692169
2016 03 11.33347 11 38 05.50 -00 41 55.1 20.2 V G96 – Mt. Lemmon Survey MPS 692169
2016 03 11.33654 11 38 05.37 -00 41 53.8 20.0 V G96 – Mt. Lemmon Survey MPS 692169
2016 03 11.33962 11 38 05.23 -00 41 52.2 20.1 V G96 – Mt. Lemmon Survey MPS 692169
2016 03 12.21891 11 37 28.63 -00 35 11.0 20.4 V 691 – Steward Observatory, Kitt Peak-Spacewatch MPS 695467
2016 03 12.22524 11 37 28.35 -00 35 07.8 20.1 V G96 – Mt. Lemmon Survey MPS 695467
2016 03 12.22807 11 37 28.22 -00 35 06.4 20.0 V G96 – Mt. Lemmon Survey MPS 695467
2016 03 12.23088 11 37 28.11 -00 35 05.2 20.1 V G96 – Mt. Lemmon Survey MPS 695467
2016 03 12.23265 11 37 28.05 -00 35 04.1 20.1 V 691 – Steward Observatory, Kitt Peak-Spacewatch MPS 695467
2016 03 12.23370 11 37 27.99 -00 35 03.8 20.0 V G96 – Mt. Lemmon Survey MPS 695467
2016 03 12.24714 11 37 27.42 -00 34 57.7 20.5 V 691 – Steward Observatory, Kitt Peak-Spacewatch MPS 695467
2016 03 13.26079 11 36 44.86 -00 27 12.4 20.2 R 926 – Tenagra II Observatory, Nogales MPS 695467
2016 03 13.27430 11 36 44.29 -00 27 06.0 20.5 R 926 – Tenagra II Observatory, Nogales MPS 695467
2016 03 13.28780 11 36 43.71 -00 26 59.6 20.7 R 926 – Tenagra II Observatory, Nogales MPS 695467
2016 03 13.31572 11 36 42.52 -00 26 47.3 20.1 V G96 – Mt. Lemmon Survey MPS 695467
